Etusivu
METAR-TAF:

METAR-TAF

Lentoasemat :

Dübendorf, Sveitsi

Leveyspiiri: 47-23-55N, Pituuspiiri: 8-38-53E, korkeus merenpinnasta: 448 m

Tämänhetkinen sää

Tämä raportti tehtiin 34 minuuttia sitten, kello 15.50 UTC
Tuuli 6 kn idästä/koillisesta, vaihdellen pohjoisen/koillisen ja idän/kaakon välillä
Lämpötila 13°C
Kosteus 35%
Ilmanpaine 1029 hPa
Näkyvyys 10 km tai enemmän

METAR: LSMD 211550Z AUTO 07006KT 030V110 9999NDV NCD 13/M02 Q1029 RMK

Aika: 17:24 (16:24 UTC)


TAF: puuttuu

Säähavainnot ja -ennusteet yli 4000 lentoasemalta (METAR- ja TAF-raportit).

Käytössä olevat sääasemat on merkitty karttaan keltaisilla ja punaisilla pisteillä.

Aseta hiiri pisteen päälle nähdäksesi sääaseman nimen.

Klikkaa sitten nähdäksesi säähavainnot ja -ennusteet.

Kartan vaihtaminen: klikkaa mustalla rastilla varustettuja vihreitä pisteitä, niin voit zoomata sisään; viivalla varustettua vihreää pistettä, niin voit zoomata ulos tai vihreitä nuolia, niin pääset viereisille kartoille.


METAR-TAF: